Location: Hylvaty SDH
(49.9612°N, 16.4057°E)
Time: 01:05:47
(UTC+01:00)

Transit 4A - Pass Details

Date: 18 August 2020
Orbit: 864 x 981 km, 66.8° (Epoch: 15 January)

Event Time Altitude Azimuth Distance (km) Brightness Sun altitude
Rises 17:40:07 0° 320° (NW) 3,651 11.5 22.3°
Reaches altitude 10° 17:42:48 10° 313° (NW) 2,714 11.0 21.8°
Maximum altitude 17:48:39 40° 246° (WSW) 1,411 10.3 20.9°
Drops below altitude 10° 17:54:31 10° 180° (S) 2,725 10.5 20.0°
Sets 17:57:13 0° 173° (S) 3,668 11.0 19.5°
